User: anonymous   Login
Location: Charleston
(38.3500°N, 81.6330°W)
Time: 02:46:08
(UTC-04:00)
Language:

Cosmos 1812 Rocket - Orbit

View from above orbital plane
View from above orbital plane
View from above satellite
View from above satellite

Ground track
Ground track

The orbit data is extracted from the following two-line orbital elements,

1 17296U 87003B   16236.77441109  .00000081  00000-0  69846-5 0  9991
2 17296  82.5307 302.9730 0020498 119.1998 241.1271 14.83135621599035
Epoch (UTC): 23 August 2016 18:35:09
Eccentricity: 0.0020498
inclination: 82.5307°
perigee height: 605 km
apogee height: 634 km
right ascension of ascending node: 302.9730°
argument of perigee: 119.1998°
revolutions per day: 14.83135621
mean anomaly at epoch: 241.1271°
orbit number at epoch: 59903

The dashed part of the orbit path shows where the satellite is in the earth's shadow,  

DLR